Regional Weather Roundup
Issued by NWS

Home | Current Version | Previous Version | Text Only | Print | Product List | Glossary Off
Versions: 1 2 3 4 5 6 7 8 9 10 11 12 13 14 15 16 17 18 19 20 21 22 23 24 25 26 27 28 29 30 31 32 33 34 35 36 37 38 39 40 41 42 43 44 45 46 47 48 49 50

916
ASUS45 KSLC 231110
RWRUT

UTAH REGIONAL WEATHER ROUNDUP
NATIONAL WEATHER SERVICE SALT LAKE CITY UT
400 AM MST MON JAN 23 2017

UTZ001>011-023>025-231200-

NORTHERN UTAH

CITY           SKY/WX    TMP DP  RH WIND       PRES   REMARKS
BRIGHAM CITY     N/A     34  32  93 CALM      29.59F
HILL AFB       MOCLDY    36  30  80 S14       29.55F WCI  27
LOGAN          SNOW      29  29 100 CALM      29.59F VSB 1/2
OGDEN          LGT RAIN  33  32  96 CALM      29.56F
SALT LAKE CITY CLOUDY    38  32  79 SE20G29   29.57F WCI  28
TOOELE VALLEY  CLOUDY    41  32  70 S22G31    29.55F
WENDOVER       CLOUDY    28  27  93 CALM      29.54F
HEBER CITY     FLURRIES  30  28  93 CALM      29.57F
WEST JORDAN    CLOUDY    35  35 100 SE22      29.59S WCI  23

$$

UTZ011>015-024>027-231200-

CENTRAL/NORTHEAST UTAH

CITY           SKY/WX    TMP DP  RH WIND       PRES   REMARKS
PROVO AIRPORT  CLOUDY    34  31  88 VRB6      29.63F WCI  29
MOAB/CANYONLAN MOCLDY    33  30  88 SE6       29.75F WCI  28
DELTA          CLOUDY    36  32  87 S24G37    29.60F WCI  24
PRICE          LGT SNOW  28  28 100 E3        29.70F VSB 1
ROOSEVELT      LGT SNOW  25  23  93 CALM      29.74F VSB 3/4
VERNAL         LGT SNOW  24  23  96 NW6       29.72F FOG     WCI  17

$$

UTZ013>016-019>022-027-231200-

SOUTHERN UTAH

CITY           SKY/WX    TMP DP  RH WIND       PRES   REMARKS
BRYCE CANYON   SNOW      25  23  92 SE15      29.73F VSB 1/2 WCI  13
CEDAR CITY     FLURRIES  33  30  88 SW22      29.62F WCI  21
MILFORD        MOCLDY    35  31  85 S23       29.61F WCI  23
ST GEORGE      CLOUDY    43  36  75 E8        29.75F
HANKSVILLE     CLOUDY    37  32  81 MISG      29.76F
BLANDING       CLOUDY    30  30 100 SE15      29.98F WCI  19

$$

REGIONAL REPORTS     COLORADO/ARIZONA

CITY           SKY/WX    TMP DP  RH WIND       PRES   REMARKS
CRAIG, CO      CLOUDY    29  20  69 E5        29.71F WCI  24
GRAND JUNCTION CLOUDY    35  30  82 SE13      29.78F WCI  26
RIFLE, CO      CLOUDY    29  28  96 SE5       29.80F WCI  24
MONTROSE, CO   CLOUDY    29  27  92 SE8       29.86F WCI  21
CORTEZ, CO     CLOUDY    32  26  78 S9        29.94F WCI  24
COLORADO CITY  LGT RAIN  36  34  93 SE14      29.80F WCI  27
PAGE, AZ       PTCLDY    40  28  62 S10       29.78F WCI  33
GRAND CANYON   MIX PCPN  32  31  96 S20G30    29.84F WCI  20
KINGMAN, AZ    MOCLDY    47  39  74 S26G37    29.80F
FLAGSTAFF, AZ  LGT SNOW  29  28  96 SW14      29.92S FOG     WCI  18

$$

REGIONAL REPORTS    NEVADA/IDAHO/WYOMING

CITY           SKY/WX    TMP DP  RH WIND       PRES   REMARKS
LAS VEGAS, NV  MOCLDY    50  41  71 SE13      29.66F
ELY, NY        LGT SNOW  32  29  88 S21G37    29.49F FOG     WCI  20
ELKO, NV       LGT SNOW  33  30  88 N3        29.45F FOG
POCATELLO, ID  CLOUDY    31  28  89 CALM      29.57F
BURLEY, ID     CLOUDY    30  27  88 NW3       29.51F
FORT BRIDGER,  FLURRIES  19  19 100 CALM      29.64F
EVANSTON, WY   LGT SNOW  21  18  88 E10       29.57F VSB 3/4 WCI  10
ROCK SPRINGS,  CLOUDY    23  20  88 N5        29.62F WCI  17

$$




USA.gov is the U.S. government's official web portal to all federal, state and local government web resources and services.